Location: Area 52 Observatory
(34.2620°N, 119.2590°W)
Time: 17:03:38
(UTC-07:00)

Tiangong 2 - Pass Details

Date: 23 March 2019
Orbit: 378 x 390 km, 42.8° (Epoch: 25 April)

Event Time Altitude Azimuth Distance (km) Brightness Sun altitude
Exits shadow 04:28:23 10° 79° (E) 1,389 4.7 -30.5°
Drops below altitude 10° 04:28:25 10° 79° (E) 1,398 4.7 -30.5°
Sets 04:30:40 0° 92° (E) 2,253 5.9 -30.1°
